GFSNGP_700_rhum_351.txt.gz
RH
98 97 99 97 98 96 97 96 97 100 99 100 100 100 100 100 100 100 99 98 98 97 98 98 98 98 98 98 98 98 98 98 97 98 98 97 97 97 97 98 98 98 97 97
95 98 98 97 98 99 99 100 100 100 99 100 100 100 100 100 100 100 99 99 99 99 98 98 98 98 98 98 98 98 98 99 99 99 99 98 98 97 98 98 98 98 97 97
97 98 97 96 99 99 100 100 100 100 100 100 100 100 100 100 100 100 100 99 99 99 99 99 99 99 99 99 98 97 98 98 98 98 98 98 98 98 98 98 98 98 98 97
98 98 97 100 100 100 98 99 100 100 100 100 100 100 100 99 100 100 100 100 100 99 99 99 99 99 99 99 99 98 98 99 98 98 98 98 98 98 99 98 98 98 98 98
97 100 100 100 100 100 99 99 100 100 100 100 100 100 100 100 100 99 98 99 98 98 99 99 100 100 100 100 100 100 100 100 99 98 98 99 98 98 98 97 98 97 96 97
98 99 99 100 100 100 100 100 99 99 99 89 82 81 72 60 47 49 46 46 40 38 41 42 47 63 83 94 97 99 99 100 100 100 100 99 99 99 100 99 99 99 99 99
100 100 100 100 100 95 100 99 88 48 32 31 35 36 29 28 29 29 29 27 28 27 25 24 22 20 19 19 20 21 23 32 48 63 77 87 92 97 98 98 98 99 99 100
80 97 100 89 57 47 33 35 31 31 33 32 34 34 34 34 33 33 34 33 35 34 33 33 33 30 28 28 28 27 26 25 24 23 24 24 24 24 24 25 25 27 29 32
38 42 27 24 28 27 27 29 30 31 35 38 37 37 38 39 41 42 46 45 45 42 41 43 45 45 40 39 38 36 35 34 33 33 32 32 32 33 33 34 33 32 32 30
38 26 26 25 28 29 29 31 34 37 33 34 35 38 41 44 48 50 52 50 50 46 43 37 40 38 38 35 35 34 32 33 37 40 39 40 43 41 40 40 39 38 38 36
28 28 28 30 30 29 33 40 39 37 37 40 43 44 47 46 48 49 50 50 47 45 40 36 37 35 36 36 33 29 28 29 32 36 41 44 47 48 49 47 48 46 47 56
31 30 30 31 32 30 30 34 37 38 40 46 50 53 58 60 62 59 56 58 54 51 46 45 46 47 50 52 46 39 35 36 38 40 44 50 52 50 62 58 56 69 100 100
29 30 31 31 32 31 31 34 36 39 46 48 56 66 74 76 80 79 81 82 78 73 67 65 62 59 66 66 63 58 51 46 47 53 56 58 61 68 62 60 65 64 71 100
27 28 31 34 32 34 33 34 36 39 44 49 59 70 80 89 96 99 96 92 87 81 83 88 87 82 86 82 75 69 64 61 61 63 68 74 80 84 85 81 72 62 82 91
24 25 26 29 31 34 37 37 38 41 42 49 62 77 87 93 98 99 100 100 93 89 85 86 86 90 99 96 84 75 74 76 81 84 85 88 97 97 90 81 81 77 72 76
28 26 26 27 28 30 32 35 37 40 41 42 49 66 87 98 99 100 100 100 96 91 93 90 89 92 100 96 86 79 78 82 86 86 86 94 100 100 95 90 89 86 82 79
68 53 48 40 35 32 31 33 36 37 36 34 38 53 73 89 95 97 99 100 98 93 92 91 87 93 100 96 86 85 90 90 94 95 96 98 99 94 87 88 86 97 96 97
86 82 77 71 63 55 43 36 37 38 39 35 35 48 71 87 87 89 93 81 78 78 89 84 86 91 93 86 78 77 86 92 98 98 93 93 100 97 96 89 86 87 89 94
95 91 90 89 84 79 70 60 47 42 42 37 34 42 68 88 88 79 63 64 68 68 78 79 80 82 78 81 84 91 100 100 100 100 100 96 78 94 94 94 96 94 90 92
98 96 95 96 97 92 89 85 76 60 51 44 35 37 57 83 74 51 53 61 64 61 65 68 68 68 72 66 71 91 98 100 100 100 100 100 94 75 85 99 92 86 90 86
97 99 98 99 100 100 97 94 92 90 79 62 44 35 41 72 53 43 46 56 55 58 58 58 61 65 71 84 92 97 100 100 100 100 100 100 96 88 70 70 75 80 79 74
99 98 100 100 100 100 100 98 96 98 96 92 74 46 36 56 52 40 43 46 50 52 60 68 72 83 83 100 100 100 100 100 100 100 100 100 100 75 67 63 62 64 70 72
100 100 100 99 100 100 100 99 99 98 98 95 98 86 57 41 51 36 40 43 44 54 57 60 76 88 83 100 100 100 100 100 100 95 99 98 96 97 65 61 65 72 82 85
100 100 100 100 100 100 100 100 100 100 100 97 97 98 96 75 54 48 36 38 41 52 56 60 76 82 90 100 100 100 100 100 100 97 74 99 91 84 92 76 63 68 70 74
100 100 100 100 100 100 100 100 100 100 100 100 100 100 100 99 95 63 52 41 38 42 52 60 65 76 81 93 100 100 100 100 100 100 66 86 96 70 65 80 75 65 63 64
99 99 100 100 100 100 100 99 100 100 100 100 100 98 100 100 100 100 87 56 52 44 46 54 66 73 78 92 91 83 84 91 99 100 67 82 82 62 57 66 67 66 65 65
67 100 99 100 100 100 100 100 98 99 100 100 100 100 100 100 100 100 100 100 74 53 58 54 54 59 61 60 59 55 57 74 87 99 68 66 67 65 62 58 60 60 61 62

GFSNGP_700_rhum_354.txt.gz
RH
97 97 98 97 97 96 96 96 97 100 100 100 100 100 100 100 100 99 98 97 98 98 98 97 97 97 97 97 97 98 97 98 98 98 98 98 98 98 98 98 96 85 71 65
97 97 97 97 98 98 98 100 100 100 100 100 100 100 100 100 99 99 99 98 98 98 98 98 98 98 98 98 98 98 97 97 97 97 97 98 98 98 98 98 98 97 98 97
99 98 97 96 100 100 98 99 98 100 100 100 100 100 100 100 100 100 100 99 99 99 100 99 98 98 98 98 98 98 98 98 98 98 97 97 97 97 97 97 97 98 98 98
98 98 98 100 100 99 98 100 100 100 100 100 100 100 96 97 98 98 97 96 97 98 98 99 99 100 99 99 99 99 99 99 99 99 99 99 99 99 99 98 97 98 98 98
97 100 100 100 100 99 100 99 100 100 100 100 100 98 96 95 91 81 72 64 64 66 69 74 81 92 98 100 100 100 100 100 100 100 100 100 100 100 100 99 99 98 99 99
97 99 99 98 100 100 100 98 99 98 90 56 22 18 20 24 24 25 25 25 22 22 23 23 21 20 22 25 29 42 80 96 100 100 100 100 100 100 100 100 100 100 99 100
99 100 100 100 90 52 79 83 51 27 23 22 22 24 21 21 22 24 26 28 31 30 29 31 30 29 26 25 24 21 19 18 17 22 34 60 85 98 100 100 100 100 99 100
67 92 97 53 43 35 26 26 26 28 30 27 27 28 29 30 30 31 31 30 35 36 36 40 43 41 40 39 38 35 32 30 29 27 25 23 22 20 20 21 28 42 56 73
32 25 24 23 23 25 26 27 27 27 28 29 29 31 32 33 36 38 40 38 37 35 34 41 47 48 41 42 41 37 33 31 30 31 32 33 31 30 28 28 26 23 21 19
28 24 22 23 25 25 26 25 26 26 27 29 28 31 33 35 42 47 51 54 54 48 40 37 42 43 43 38 36 32 30 30 30 30 30 32 34 34 34 35 35 34 31 28
27 26 27 26 26 25 26 27 28 29 31 32 32 34 40 42 53 60 65 69 70 68 64 60 52 46 48 49 48 44 41 40 39 36 35 33 35 38 41 42 46 44 44 44
28 28 28 29 28 27 29 30 31 31 32 34 36 35 38 42 56 71 79 88 86 82 79 76 75 73 72 70 63 56 52 53 54 51 46 41 38 40 49 50 57 68 81 90
24 26 27 27 29 27 28 30 32 34 34 34 35 35 37 39 57 70 89 97 95 91 88 87 83 77 78 84 85 80 73 68 65 63 57 52 51 50 46 58 72 74 72 92
30 28 29 27 28 29 30 31 33 35 36 38 37 35 34 36 49 73 92 99 96 94 96 91 85 81 84 82 83 88 87 83 76 68 63 64 66 66 69 68 65 66 80 80
68 61 58 51 46 42 41 42 40 39 40 40 40 36 36 37 49 69 86 92 92 93 95 98 93 87 90 87 88 91 91 84 80 78 80 82 81 77 73 74 76 71 60 58
95 85 80 77 74 71 66 61 59 55 52 49 44 38 35 38 52 73 83 93 93 87 90 80 74 80 88 91 88 84 86 85 79 79 81 84 88 91 90 83 82 78 68 68
92 95 97 94 90 88 86 82 79 76 73 68 59 47 37 35 46 70 80 74 65 64 68 67 62 69 77 81 85 79 72 82 93 92 99 100 100 96 87 88 82 85 82 77
97 99 98 96 90 86 88 89 86 85 83 81 78 65 48 36 39 60 46 42 50 53 66 57 59 67 71 74 65 71 89 99 100 100 99 96 96 99 96 83 86 78 82 86
100 96 96 96 95 90 88 87 91 92 90 86 86 86 68 49 39 49 35 38 43 46 52 50 52 57 56 61 68 76 99 99 100 100 100 100 100 100 100 95 76 81 82 83
98 98 96 93 98 97 90 92 92 95 97 91 90 92 90 74 56 44 38 34 38 41 45 46 46 49 55 65 79 94 99 100 100 100 100 100 100 100 100 97 79 72 80 91
98 98 99 96 95 100 98 96 94 95 98 98 92 93 92 94 84 56 41 31 34 39 42 47 48 49 52 68 94 100 100 100 100 100 100 100 100 100 100 98 86 72 68 79
97 98 100 99 97 99 100 100 99 96 98 98 96 94 97 98 95 86 60 39 33 34 41 48 51 61 72 83 85 99 100 100 100 100 100 100 88 97 100 99 70 67 63 63
66 100 100 100 98 98 100 100 100 99 99 100 98 94 97 99 99 89 92 69 43 32 36 46 50 58 70 75 92 100 100 100 100 100 100 100 79 90 90 96 89 54 54 58
80 85 88 100 100 99 97 100 100 100 99 100 100 99 97 96 100 98 99 100 92 56 36 38 47 53 59 68 81 92 100 96 82 82 100 100 79 100 96 81 84 81 59 61
63 44 52 92 99 100 100 100 99 100 100 100 100 100 100 100 99 100 100 100 100 99 84 47 42 44 50 59 69 78 89 82 63 60 82 100 77 82 84 62 64 71 61 55
87 67 73 82 91 96 100 100 99 100 100 99 98 100 100 100 100 100 100 100 100 100 100 98 65 55 54 52 55 62 66 59 55 53 66 100 73 70 70 62 57 59 59 57
100 95 58 44 42 53 81 98 98 97 100 100 96 100 100 100 100 100 100 100 100 100 100 100 100 70 50 61 69 68 63 55 47 48 70 96 68 72 65 59 57 58 57 56

GFSNGP_700_rhum_357.txt.gz
RH
100 98 96 97 98 96 97 97 97 100 100 100 100 100 100 98 97 97 97 96 96 97 98 98 98 98 98 98 98 97 97 97 97 96 96 96 95 96 96 96 96 97 97 97
97 98 97 95 98 98 98 99 98 100 100 100 100 100 100 100 100 98 96 95 94 94 95 97 98 98 99 98 98 98 98 98 98 98 98 97 97 97 96 96 96 97 97 97
100 98 97 93 99 100 99 100 100 100 100 100 100 100 100 100 98 93 90 87 89 90 91 92 93 95 97 98 99 99 98 98 98 98 98 99 99 99 98 98 98 98 98 97
98 100 99 100 100 100 100 100 100 100 100 100 98 99 94 91 86 81 78 77 76 74 73 76 80 88 93 96 96 98 99 98 97 97 98 98 98 98 99 99 98 99 99 99
97 100 100 100 100 100 100 100 100 100 100 98 94 75 29 22 19 18 19 18 18 16 16 16 17 22 34 50 68 86 98 100 100 100 100 100 100 100 99 100 100 99 99 99
98 97 97 99 100 98 97 100 93 70 37 20 18 18 20 21 22 22 23 23 22 22 22 20 21 20 18 18 18 18 19 23 38 60 91 99 100 100 100 100 99 99 98 99
96 99 100 95 60 40 54 49 22 22 21 22 21 22 21 22 23 23 24 25 26 28 28 27 27 26 26 27 28 24 24 24 23 22 20 20 24 41 75 96 100 100 100 100
49 72 77 27 32 26 25 25 24 25 24 24 25 25 25 26 26 27 27 28 31 32 35 40 38 33 29 29 30 29 28 28 29 30 30 29 28 27 25 22 21 27 48 79
24 24 23 23 24 24 23 24 24 25 26 27 29 30 30 30 29 29 30 32 37 40 46 53 58 55 46 40 35 32 29 29 27 25 26 26 26 26 26 29 29 27 25 23
28 26 24 25 25 25 26 27 29 30 31 33 35 34 35 34 32 30 30 32 38 44 52 62 71 71 68 64 55 44 39 37 36 34 31 29 26 24 22 22 24 25 26 26
28 28 28 27 27 27 28 30 32 33 35 36 38 39 39 37 34 30 30 36 42 49 57 69 76 78 80 77 73 69 65 57 50 49 48 46 44 39 34 30 28 26 28 34
26 25 27 28 28 29 30 33 34 37 40 40 42 44 44 42 36 31 31 38 47 59 68 74 76 78 82 82 79 74 68 68 74 70 63 59 55 52 51 44 39 35 34 44
53 42 36 38 37 42 44 43 46 45 48 53 53 54 52 49 41 33 34 42 53 60 70 80 82 81 88 87 83 79 76 73 74 83 83 79 74 65 56 56 48 43 44 47
88 80 73 75 69 68 68 68 68 66 65 66 65 65 62 57 50 38 33 44 57 66 73 74 69 69 80 72 71 76 76 79 84 86 87 81 77 75 69 60 56 62 68 66
100 95 87 90 89 88 84 80 79 80 77 77 77 75 72 68 61 49 35 44 46 40 45 47 48 54 62 67 65 71 80 88 94 88 82 78 76 75 74 75 74 68 72 79
100 98 90 90 89 93 93 92 86 88 86 84 83 82 81 78 72 63 41 42 36 30 38 42 44 54 60 58 61 71 82 81 75 77 80 85 93 91 85 86 79 71 71 74
90 94 98 98 100 100 100 100 95 92 90 88 89 88 85 83 80 76 57 42 33 29 36 35 40 48 52 57 61 67 65 86 93 97 100 100 100 99 100 100 100 94 68 74
100 100 100 100 95 91 94 98 94 94 94 89 89 91 87 87 81 83 78 54 35 27 34 33 36 41 44 47 51 63 81 92 99 100 100 100 100 99 95 95 94 96 90 72
89 98 100 100 100 99 97 95 94 96 98 93 92 94 94 94 91 88 89 78 51 29 29 31 35 36 39 46 58 69 77 83 89 99 100 100 100 100 100 100 100 100 96 74
84 61 80 100 100 100 98 100 94 95 100 97 95 97 95 100 98 96 93 91 73 50 28 29 34 39 42 45 54 64 72 84 94 99 100 100 100 100 100 100 100 100 95 76
100 64 57 88 98 100 100 100 98 94 100 100 98 98 96 100 100 100 97 92 93 86 48 30 34 39 45 48 54 62 75 84 91 98 100 100 100 100 99 91 97 100 93 77
96 86 80 78 64 79 100 100 100 99 100 100 100 100 98 100 100 100 100 96 98 100 95 53 33 38 44 52 56 60 67 84 94 100 96 82 91 100 100 95 98 94 93 60
98 98 88 57 55 80 93 100 98 100 100 100 100 100 100 96 99 99 93 100 100 100 100 100 67 41 43 49 52 62 76 84 94 100 96 85 74 95 100 91 100 88 90 61
95 98 100 100 82 65 59 61 82 100 100 100 100 100 100 97 93 100 100 100 100 98 100 100 100 94 68 45 44 51 63 70 75 88 89 80 67 80 99 78 98 72 73 65
78 84 94 97 91 77 64 53 48 47 53 71 94 100 100 100 99 100 100 100 100 100 100 100 100 100 100 99 62 49 50 56 65 70 68 64 56 85 94 76 79 68 62 60
44 43 44 46 46 47 51 54 53 53 51 50 51 56 67 96 100 100 100 100 100 100 100 100 100 100 100 100 97 60 64 67 65 65 65 54 54 95 78 72 67 62 58 54
24 22 21 19 18 18 19 20 20 22 28 33 37 53 61 67 76 90 100 100 100 100 100 100 100 100 100 100 100 80 50 63 80 66 42 47 78 80 66 68 60 56 55 52

GFSNGP_700_rhum_360.txt.gz
RH
98 99 98 99 97 96 97 97 97 100 100 100 100 100 100 100 97 95 93 91 91 92 93 96 97 97 96 95 94 96 96 96 96 96 96 96 96 97 97 96 96 96 96 96
100 99 97 99 99 98 98 100 98 99 100 100 100 100 100 98 92 87 84 83 81 82 83 84 85 88 93 96 96 95 92 94 96 97 96 96 96 96 96 97 97 97 97 97
100 97 96 94 100 100 99 100 100 99 99 99 100 100 99 92 88 84 79 74 72 71 72 73 74 78 81 85 89 92 95 96 95 95 96 97 98 98 98 97 97 97 97 97
99 96 95 100 100 100 100 99 100 100 100 99 98 94 85 62 34 21 15 14 14 13 13 14 16 21 32 47 62 75 86 93 96 96 97 97 97 98 98 98 97 96 96 97
98 99 100 100 100 99 100 100 100 100 100 86 41 18 17 17 17 17 17 18 18 18 17 17 16 15 15 14 13 14 21 38 56 79 96 98 98 98 99 99 99 99 99 98
100 84 90 99 93 75 100 96 51 25 20 20 19 20 21 22 23 24 24 24 24 24 24 23 22 21 20 20 20 18 17 17 17 17 20 31 62 95 99 99 100 100 100 100
99 99 81 53 47 48 62 29 20 21 21 22 24 26 27 28 29 30 29 28 25 24 23 24 25 25 28 28 27 24 23 22 22 23 23 22 22 21 24 45 80 97 100 100
45 62 53 24 27 26 23 23 24 25 27 29 31 32 33 35 35 35 34 30 25 21 22 25 28 30 36 41 40 37 33 29 27 26 25 25 25 26 27 25 22 21 26 47
26 27 23 24 24 25 26 28 29 31 33 35 37 38 39 40 41 41 40 34 25 21 23 28 31 37 41 48 50 51 50 48 39 32 30 28 24 24 23 24 24 24 24 22
32 29 28 28 28 28 30 32 33 35 38 40 42 44 44 46 46 46 45 39 26 22 25 32 39 46 56 60 61 61 63 63 60 56 46 39 38 33 28 26 25 23 21 20
28 28 29 30 30 31 33 37 40 42 46 48 50 52 51 54 53 52 50 47 32 26 30 39 46 53 62 68 69 68 68 68 68 66 62 62 55 47 46 43 39 36 33 29
69 57 46 46 50 50 53 54 57 58 57 59 59 60 59 61 61 58 56 54 40 29 32 34 35 42 59 66 65 65 66 69 70 69 67 66 65 68 64 53 51 48 45 44
100 98 87 81 78 74 74 74 73 74 72 68 73 69 68 64 67 64 63 59 53 34 31 24 23 29 42 45 46 49 53 56 57 61 62 65 73 75 74 78 66 57 54 50
100 97 98 100 97 95 90 90 87 88 84 81 76 77 72 71 73 73 71 66 61 46 32 24 24 30 36 38 43 50 54 58 62 70 80 86 85 82 76 70 67 68 64 56
100 100 97 99 100 100 97 95 90 94 91 90 88 84 82 77 75 76 74 69 65 59 37 25 22 30 33 34 37 44 51 59 69 76 81 77 73 71 70 68 65 61 60 62
97 100 99 99 98 100 100 99 89 93 94 93 91 92 90 86 81 80 81 76 72 69 51 32 22 26 30 32 36 43 49 60 67 66 74 78 82 84 85 84 81 76 70 63
92 88 86 90 97 97 100 100 99 97 97 97 93 95 95 95 93 90 90 88 84 79 67 49 25 23 27 31 35 40 49 53 64 76 86 90 93 95 98 98 97 95 91 88
97 98 96 76 81 90 95 100 100 100 100 100 97 99 100 100 98 95 93 93 94 86 83 70 38 24 25 29 34 39 46 64 77 84 93 98 100 100 100 100 97 96 88 89
100 96 99 89 63 77 94 99 99 98 100 100 100 100 100 100 100 95 92 93 100 87 92 87 68 32 26 29 34 40 51 62 68 76 90 96 99 100 100 100 100 100 100 99
100 100 100 99 94 88 73 59 74 96 100 100 100 100 100 100 100 100 99 97 100 89 94 100 93 59 31 30 35 39 46 54 64 77 83 91 88 92 97 100 100 100 97 100
100 100 100 100 100 100 81 58 66 87 100 100 100 100 100 100 100 100 100 98 100 97 99 100 100 97 58 35 36 41 46 48 55 62 76 86 96 100 100 90 100 100 100 100
92 93 93 93 95 100 100 100 77 62 60 71 93 100 100 100 100 100 100 100 100 100 97 100 100 100 99 72 46 40 46 55 60 69 76 81 93 100 100 88 91 100 100 100
46 50 55 58 60 65 70 77 78 74 68 62 58 59 63 70 92 99 99 100 100 100 100 100 100 100 100 100 96 75 57 47 54 63 70 77 82 90 91 81 81 99 95 100
25 24 22 22 20 20 20 20 21 22 24 34 50 62 66 66 66 77 93 100 100 100 96 98 100 100 100 100 100 100 100 90 50 54 65 72 71 71 70 70 79 91 83 96
20 20 20 20 20 21 23 24 25 26 24 25 26 26 28 41 58 73 88 95 100 100 100 100 100 100 100 100 100 100 100 100 94 64 57 57 58 61 65 62 87 77 75 76
24 25 27 30 33 35 37 38 37 39 38 36 35 36 35 34 33 34 43 73 95 100 100 100 100 100 100 100 100 100 100 100 100 72 68 72 73 62 51 81 77 73 68 62
32 35 36 42 48 50 50 50 47 44 41 39 36 35 36 38 41 43 43 40 42 53 82 100 100 100 100 100 100 100 100 100 98 55 62 70 48 46 74 73 68 66 59 56

GFSNGP_700_rhum_363.txt.gz
RH
98 100 98 100 99 97 95 97 97 100 100 100 100 100 100 100 99 95 86 79 77 75 74 74 75 77 79 82 82 86 95 96 96 97 96 97 97 97 96 95 96 96 95 96
99 100 97 96 100 100 99 100 100 100 100 100 100 100 100 99 97 83 77 72 68 65 63 62 62 65 68 71 73 75 80 85 93 97 96 97 97 97 98 98 97 96 96 96
100 97 97 92 99 100 100 100 100 100 100 100 100 99 99 98 94 69 48 26 15 12 11 10 10 11 16 31 48 59 65 68 74 82 90 97 97 97 97 97 98 99 100 98
100 98 88 100 100 100 100 100 100 100 100 100 100 92 55 20 14 14 15 16 17 18 17 17 16 16 16 14 12 11 11 20 46 63 71 81 88 97 98 98 98 98 98 98
98 96 100 100 100 100 100 100 100 99 82 36 19 18 18 19 21 22 24 24 24 22 20 18 16 14 14 15 16 17 17 15 12 11 14 39 70 82 88 94 99 98 98 98
100 86 91 100 65 100 83 67 33 21 20 20 22 33 24 27 27 28 28 28 28 25 22 18 14 13 13 12 13 13 16 19 20 18 16 14 13 15 39 69 88 95 98 99
73 81 60 37 40 46 79 30 22 23 25 26 27 30 31 32 33 34 34 33 31 29 24 19 15 13 14 16 16 16 16 18 22 26 26 22 19 18 17 16 18 34 63 86
61 55 69 25 26 35 25 26 27 29 31 33 34 36 37 39 39 40 39 37 36 34 28 21 16 15 17 20 21 24 26 27 26 28 32 35 30 24 21 20 20 19 17 17
33 30 26 27 28 29 30 31 32 34 36 38 40 42 44 46 46 44 42 40 38 38 35 26 20 16 17 19 21 26 32 38 41 42 41 41 41 41 31 25 22 21 21 20
39 30 30 30 30 31 32 34 37 39 42 45 47 49 50 52 50 48 49 47 46 45 42 33 25 19 16 16 18 21 29 39 46 50 54 54 52 50 48 44 33 28 24 22
88 84 52 49 52 47 48 50 52 54 55 56 55 57 55 58 57 56 56 52 50 50 49 43 32 22 17 17 18 20 24 31 40 47 53 56 58 57 56 54 55 47 39 37
100 100 100 95 87 80 77 74 72 70 71 70 66 64 65 66 66 62 61 59 57 58 55 52 42 27 18 17 18 22 26 30 33 36 38 41 44 47 57 59 58 61 61 52
100 100 100 100 100 97 92 94 88 86 83 76 82 74 74 69 74 69 68 65 62 63 63 58 53 36 23 18 18 22 27 30 33 37 40 44 47 49 48 56 66 68 70 68
100 100 96 98 96 96 91 95 93 94 95 87 86 85 81 78 77 78 77 73 70 72 72 65 62 48 34 21 18 22 26 30 33 36 40 47 56 64 70 70 71 76 75 72
100 100 100 98 100 100 96 96 94 94 95 96 97 94 90 86 86 87 90 87 79 79 82 74 71 62 47 27 20 21 25 28 34 39 46 55 61 60 59 58 57 55 55 57
91 100 100 97 95 91 96 100 98 96 96 96 100 100 97 97 94 91 94 92 85 84 88 83 79 73 63 39 22 21 24 27 32 40 45 47 56 66 72 75 75 75 75 74
93 86 91 92 98 94 78 79 88 92 92 96 96 92 94 100 98 100 97 98 91 93 94 90 84 80 78 57 30 23 25 28 32 38 51 64 71 75 84 90 97 97 94 94
100 100 100 100 98 93 92 87 84 90 89 96 99 98 100 100 100 100 100 96 94 99 100 98 89 88 89 77 45 27 26 30 34 42 52 62 74 84 90 86 86 95 98 96
100 99 99 100 100 99 98 97 98 94 73 60 72 93 100 100 100 100 100 100 100 100 100 91 98 95 98 94 71 37 28 30 35 42 52 63 74 81 86 94 95 92 97 98
46 58 72 83 91 94 93 98 100 100 100 100 98 98 97 100 100 100 100 96 100 100 96 94 100 100 100 100 95 65 35 32 37 42 49 61 68 78 84 90 100 100 98 100
27 25 24 23 23 28 36 41 44 47 55 71 84 83 75 68 68 75 88 94 100 100 100 100 100 100 100 100 100 97 72 41 37 42 48 55 62 72 78 89 99 100 94 91
22 21 21 21 21 21 22 22 23 23 24 25 29 35 42 51 64 70 75 75 77 98 100 99 100 100 100 100 100 100 100 83 60 45 49 54 60 73 81 84 82 86 86 80
26 28 29 31 32 33 35 37 39 40 39 39 38 36 34 32 33 34 41 76 85 89 98 100 100 100 100 100 99 100 100 100 98 93 75 55 60 66 70 73 74 74 74 73
33 35 39 42 44 46 47 51 53 53 51 48 47 47 45 42 41 45 50 50 65 98 100 100 100 100 100 100 100 100 100 100 100 100 100 100 90 64 61 65 63 63 68 73
44 49 53 57 59 62 65 63 61 57 52 48 45 42 41 42 42 41 41 44 48 52 77 100 100 100 100 100 100 98 97 100 100 100 100 100 100 99 71 61 63 67 63 83
55 60 68 77 79 74 69 62 55 49 42 35 29 25 24 24 26 30 35 42 47 49 49 54 84 100 100 100 100 100 100 100 100 100 100 99 97 71 77 75 58 60 80 73
61 73 74 78 74 67 58 52 42 32 25 24 25 32 34 30 25 24 28 36 42 58 63 61 62 78 100 100 100 100 100 100 100 100 100 100 68 65 63 46 63 70 68 66

GFSNGP_700_rhum_369.txt.gz
RH
100 100 99 100 100 100 96 100 99 100 100 100 100 100 100 100 100 99 99 98 98 97 82 63 60 58 57 57 58 59 62 65 67 69 71 77 80 84 92 97 95 91 91 96
100 100 100 82 93 100 98 100 100 100 99 100 100 100 100 100 100 100 100 98 94 62 23 15 15 14 17 19 24 30 35 38 43 48 54 59 64 68 78 81 88 97 96 94
99 100 100 74 99 100 100 100 100 99 100 100 100 100 100 100 100 100 96 58 29 19 17 15 13 12 11 10 9 8 8 8 8 9 12 18 31 44 54 65 77 83 86 96
99 99 94 100 100 100 100 100 100 100 100 100 100 100 100 100 99 60 25 24 23 20 19 17 15 13 12 10 8 7 7 6 6 6 6 7 7 8 8 19 46 61 78 86
89 100 100 97 99 100 100 100 100 100 100 100 100 100 100 99 98 62 31 27 25 23 21 20 18 16 15 13 11 8 6 5 5 5 5 5 5 6 7 9 9 11 37 66
46 88 100 42 84 96 98 32 28 33 30 28 45 38 31 32 33 32 32 31 28 25 24 22 20 19 17 16 15 13 9 6 5 5 5 4 5 5 5 6 7 9 11 10
45 52 36 34 34 46 37 32 32 32 33 35 35 36 37 38 38 38 37 37 35 33 31 29 27 24 22 20 19 17 15 11 8 6 6 6 6 6 6 6 6 7 9 11
47 51 67 37 40 39 36 34 35 36 37 39 40 42 43 44 44 43 42 41 40 39 37 36 33 32 28 26 24 22 20 18 14 9 7 7 7 7 8 7 8 8 8 12
100 100 100 44 100 96 67 52 49 47 47 49 49 50 50 51 52 51 50 50 49 48 46 44 40 38 36 33 32 29 26 22 20 16 11 8 8 8 9 10 11 11 10 10
95 100 100 100 100 100 100 100 93 83 76 72 68 69 68 65 64 63 62 60 57 55 54 53 48 47 45 41 39 38 34 30 26 24 18 12 9 10 10 11 12 13 14 14
93 100 88 95 100 100 100 100 98 96 98 97 89 88 81 78 80 76 74 71 66 64 61 63 58 55 53 51 46 45 41 37 32 29 26 18 12 10 11 12 13 15 18 19
100 100 100 97 100 100 99 98 100 97 100 100 100 94 92 87 90 89 83 84 79 75 70 71 70 64 63 62 57 56 50 46 42 37 32 27 18 13 14 14 15 16 18 21
100 100 100 100 100 100 100 100 99 94 95 93 100 98 98 92 96 89 92 94 92 84 80 79 81 77 77 74 65 65 62 57 53 46 40 34 25 16 15 16 17 19 21 24
90 96 91 99 95 99 98 95 92 94 100 99 93 86 87 88 90 93 97 99 96 91 86 87 88 84 87 84 74 76 75 68 63 57 49 41 32 20 17 19 21 23 24 28
32 32 35 45 72 93 100 100 100 100 100 100 100 98 94 88 89 95 100 100 100 100 96 98 96 99 100 95 84 88 85 81 73 66 59 50 37 24 20 22 25 28 34 37
30 28 27 26 25 25 25 28 40 62 84 96 100 100 100 100 97 96 96 95 96 98 99 96 98 100 100 95 90 95 97 91 84 81 70 58 44 29 23 26 29 34 42 50
31 30 29 29 28 28 27 26 26 25 25 26 28 41 64 84 95 100 100 100 94 90 98 98 100 100 100 95 91 95 96 98 94 87 82 66 50 33 26 28 33 40 48 54
39 40 39 38 38 38 37 37 36 37 38 36 34 31 28 28 29 31 42 70 96 100 100 100 100 98 98 100 100 99 99 100 100 98 95 79 55 38 29 30 36 43 52 62
48 49 50 50 52 52 52 52 53 54 55 54 51 49 48 47 44 39 34 34 38 42 64 82 97 100 100 100 100 100 100 100 100 100 100 96 69 46 33 33 39 47 55 62
57 59 59 60 61 64 64 67 69 69 72 72 70 69 67 65 62 58 54 51 50 44 38 42 59 83 98 100 100 99 100 100 100 100 100 100 92 56 39 35 39 46 55 63
60 56 59 64 66 73 81 86 87 84 82 81 78 76 72 68 66 62 59 56 55 53 53 53 52 59 78 100 100 100 100 100 100 100 100 100 100 83 54 40 40 44 50 58
55 63 72 80 85 89 96 96 96 88 77 71 68 66 61 57 52 49 47 46 45 46 55 61 60 63 68 96 100 100 100 100 100 100 100 100 100 100 92 69 55 49 49 55
81 86 84 84 83 81 78 76 71 69 55 48 48 40 33 30 29 27 26 30 29 31 35 34 51 96 99 100 100 100 100 100 100 100 100 100 100 100 100 100 98 94 91 86
58 66 79 88 93 91 91 98 100 98 91 62 44 39 41 65 77 77 77 75 64 50 41 31 34 52 77 89 100 100 97 99 100 100 100 99 96 99 100 100 100 100 100 100
100 100 100 100 98 98 100 100 98 100 100 100 100 97 100 100 99 99 99 95 93 85 72 49 35 31 44 80 87 100 100 100 100 100 100 100 100 100 100 100 100 100 100 100
100 100 100 100 100 100 100 100 100 100 100 100 100 94 100 100 99 99 100 100 99 93 85 66 37 30 37 56 70 77 94 100 100 95 92 97 100 100 100 100 100 100 99 67
100 100 99 97 92 98 100 100 100 100 100 100 99 92 100 100 98 100 100 100 100 96 93 68 35 38 41 48 67 73 86 99 100 100 100 98 90 90 97 100 100 91 64 53

GFSNGP_700_rhum_372.txt.gz
RH
100 100 87 96 100 98 98 100 100 100 98 100 100 100 100 100 100 100 100 100 98 99 98 97 97 97 84 66 60 58 57 57 58 60 62 64 68 74 77 79 86 88 88 87
100 100 100 75 96 99 94 100 100 100 100 100 100 100 100 100 100 100 100 99 99 100 99 98 75 34 21 19 19 21 22 25 28 31 35 39 43 47 52 59 68 75 81 88
100 100 100 74 100 100 99 100 100 98 100 100 100 100 100 100 100 99 98 100 100 100 99 91 60 20 11 10 9 8 7 7 7 8 8 8 9 10 13 26 39 48 57 72
100 100 93 99 100 100 100 100 100 100 100 100 100 100 100 100 100 100 99 98 76 40 22 18 16 14 12 10 9 8 7 6 6 6 6 5 6 6 6 7 7 8 16 40
78 100 98 51 65 97 100 78 95 100 100 100 100 100 100 100 100 100 100 91 45 26 24 21 18 17 15 14 12 11 9 8 6 5 4 4 4 4 4 4 4 5 6 8
29 62 70 94 53 87 93 38 36 36 46 83 96 97 92 88 82 66 44 35 32 30 27 26 24 21 19 17 15 13 12 11 10 8 6 5 4 4 4 4 4 4 4 4
57 47 76 87 90 40 42 46 37 37 37 37 37 37 38 39 39 39 38 37 36 34 33 30 28 26 24 22 21 18 17 15 13 12 10 8 7 5 4 4 4 4 4 4
92 82 94 92 92 94 100 100 67 50 44 42 42 44 44 44 45 45 46 44 44 43 40 36 33 32 29 27 26 25 23 21 18 16 14 13 11 9 7 6 5 5 5 5
100 100 100 100 100 100 100 100 100 99 90 74 67 61 58 55 54 53 51 50 49 48 47 44 41 40 38 34 34 33 29 27 25 22 20 18 16 14 12 10 8 6 6 6
95 98 100 100 100 100 100 100 100 100 100 100 94 94 84 76 73 69 66 61 59 56 55 54 50 48 47 46 42 42 39 34 31 29 27 24 21 19 17 14 12 9 8 7
98 100 93 100 100 100 100 100 100 100 100 100 96 96 94 92 97 92 86 82 75 71 67 64 61 57 55 52 50 49 48 44 39 37 35 32 28 25 22 19 16 13 10 9
69 65 82 99 100 100 99 99 100 99 98 100 100 95 93 92 97 95 92 94 91 85 77 75 73 70 69 64 60 57 55 56 53 48 44 40 36 31 27 24 22 18 14 11
43 36 34 34 35 64 90 100 100 100 100 98 100 99 99 93 90 90 94 97 98 94 93 88 85 84 85 81 72 69 68 68 63 59 54 50 45 41 36 31 28 24 18 13
38 35 33 31 28 28 28 27 31 56 92 100 98 98 97 95 95 96 91 91 95 96 97 98 96 94 100 94 87 81 78 82 74 72 66 62 56 50 44 39 34 29 21 15
41 42 42 41 39 37 35 33 30 28 26 26 31 56 89 100 100 100 100 100 99 97 98 98 96 100 100 100 97 89 84 90 88 81 80 75 69 62 55 48 40 32 24 19
47 49 51 52 51 50 48 47 45 43 41 38 36 32 29 27 27 39 77 100 100 100 100 100 95 100 98 100 100 95 91 95 97 93 89 86 82 77 66 56 46 34 25 22
58 58 59 58 59 59 59 59 58 57 56 54 53 51 48 44 41 37 31 30 32 51 89 100 100 100 99 100 100 100 99 100 100 92 96 98 94 89 78 65 50 36 28 26
67 65 64 64 63 62 61 64 68 68 68 68 68 68 67 66 62 57 52 47 43 37 37 37 57 93 100 100 100 100 100 100 100 99 95 100 100 99 90 74 53 38 30 32
57 57 61 67 75 78 82 84 86 88 86 87 86 83 80 77 75 73 71 66 62 56 52 49 42 45 60 90 99 100 100 100 100 100 100 98 99 100 98 86 57 40 33 35
67 71 73 77 79 82 85 97 100 100 100 97 93 83 77 74 73 72 70 68 66 63 60 58 54 51 50 56 84 86 100 100 100 100 100 100 99 100 100 98 76 48 37 36
62 72 82 90 92 92 92 93 94 93 93 87 78 66 52 51 53 51 50 49 49 51 53 55 57 57 56 64 82 84 93 100 100 100 100 100 100 99 100 100 94 70 49 39
100 100 100 100 100 99 100 100 100 100 100 100 100 97 69 45 36 33 34 32 31 33 31 33 42 60 89 100 89 87 96 100 100 100 100 100 100 100 100 100 100 94 79 62
100 100 100 100 100 100 100 100 100 100 99 100 100 99 96 99 94 87 88 95 92 82 74 58 42 35 66 65 81 87 100 100 100 100 100 100 100 100 100 100 100 100 99 96
100 100 100 100 100 100 100 100 100 100 100 100 100 100 100 99 100 100 100 100 100 100 98 91 80 62 42 33 57 83 95 96 100 100 100 100 100 100 100 100 99 97 97 99
100 100 100 100 100 99 100 100 100 100 100 100 100 97 100 100 100 100 100 100 99 93 94 95 90 80 62 41 35 50 81 94 98 100 100 100 100 100 100 100 100 100 98 95
100 100 100 100 100 100 100 100 100 100 100 100 100 92 96 100 100 100 100 99 98 97 95 92 89 81 51 34 35 45 65 82 89 90 97 100 100 100 99 97 100 100 100 96
100 100 100 100 100 100 100 100 100 100 100 100 93 99 100 99 98 99 100 100 100 98 95 95 92 71 38 41 46 48 63 76 86 88 83 88 92 96 99 100 100 100 100 96

GFSNGP_700_rhum_375.txt.gz
RH
100 100 86 92 98 99 98 100 100 100 100 100 100 100 100 100 100 100 100 99 98 99 98 98 97 97 97 96 97 96 95 96 90 78 72 70 70 72 74 80 89 94 95 95
100 100 100 75 96 90 95 100 100 100 99 100 100 100 100 100 100 100 100 100 100 98 98 98 98 97 97 97 91 77 51 42 42 42 43 44 45 46 49 51 55 61 68 74
100 90 96 78 99 100 100 100 100 97 100 100 100 100 100 100 100 100 100 99 99 99 99 99 99 86 46 23 14 10 10 9 10 10 10 11 12 14 16 20 25 32 39 43
100 97 94 85 99 100 100 100 100 100 100 100 100 100 100 100 100 100 100 100 100 99 100 90 87 75 62 42 27 8 7 7 6 6 6 5 5 5 5 5 5 5 6 8
72 100 90 86 87 99 93 71 83 100 100 100 100 100 100 100 100 100 100 100 99 82 45 31 21 19 16 14 13 11 10 9 8 7 6 5 4 4 4 4 3 3 3 4
37 55 81 100 100 50 63 51 95 51 61 93 100 100 100 100 100 99 99 99 99 99 88 50 28 23 20 18 16 15 14 13 12 10 9 7 6 5 4 4 3 3 3 3
86 62 96 100 100 79 85 91 100 100 73 42 43 56 59 60 58 57 51 46 45 42 37 35 32 29 27 25 22 20 18 16 15 13 12 11 9 8 7 6 5 5 4 4
93 90 94 98 86 99 100 100 100 100 100 96 82 60 52 48 48 48 49 48 45 44 44 40 38 35 32 30 30 28 26 23 21 18 17 14 13 12 10 10 9 8 7 6
100 100 100 100 100 100 100 98 100 98 100 99 99 100 97 81 72 65 60 57 54 52 53 49 44 43 41 36 37 36 34 32 30 27 24 21 18 16 14 14 12 11 10 10
81 78 63 100 97 100 100 99 98 100 98 100 92 95 95 96 96 92 86 78 71 64 63 64 56 50 51 45 42 43 41 38 36 34 31 28 25 23 20 18 17 16 14 13
54 60 38 45 45 37 41 79 99 100 100 99 95 90 90 88 92 94 95 94 88 84 78 77 72 65 62 61 54 52 50 48 44 43 40 36 33 30 28 25 22 20 18 17
54 49 49 44 41 37 32 31 30 34 56 93 100 96 93 92 92 90 90 95 97 95 87 85 85 85 80 75 70 64 62 61 59 53 51 47 42 40 36 32 28 26 23 21
59 52 51 51 50 50 46 42 39 35 31 27 28 39 77 92 97 96 94 94 90 87 90 92 90 90 94 87 78 72 69 72 71 65 63 61 56 52 47 39 37 32 30 27
60 61 60 61 60 60 60 57 54 51 48 45 41 35 30 28 34 64 88 94 93 91 92 89 88 92 99 97 88 84 83 82 80 81 76 73 69 65 58 52 45 42 38 35
71 71 71 68 65 64 63 61 60 60 60 58 57 53 49 45 40 34 31 34 56 86 97 96 95 98 98 98 96 96 93 91 90 88 92 86 79 76 71 64 60 54 50 46
59 55 53 53 52 54 54 57 57 56 57 59 60 61 62 61 59 55 49 44 35 30 32 51 90 100 98 98 99 100 100 98 96 96 94 92 87 84 81 76 72 68 61 56
67 65 69 70 73 70 72 76 80 80 79 77 75 75 76 74 71 68 67 65 58 51 47 36 30 34 63 96 99 100 100 100 100 93 98 98 92 89 92 88 85 81 74 66
71 75 77 82 86 88 86 86 85 85 90 94 93 93 91 88 85 80 78 75 73 70 66 59 54 46 37 36 60 95 100 100 100 100 94 100 100 97 96 93 92 90 85 76
94 99 100 100 100 100 99 96 97 99 100 100 98 93 88 80 71 64 65 70 73 72 71 72 69 61 54 48 40 48 74 99 100 100 100 99 99 100 100 99 99 99 96 84
97 98 100 100 100 100 100 100 100 100 100 100 100 100 98 97 95 77 54 45 49 54 60 64 64 63 64 66 65 58 62 83 98 100 100 100 100 100 100 100 100 100 100 94
99 100 100 100 100 100 100 100 100 100 100 100 100 100 100 98 100 96 70 41 38 36 34 36 44 51 57 89 85 70 56 59 77 94 100 100 100 100 100 100 100 100 100 100
100 100 100 100 100 100 100 100 100 100 100 100 100 100 100 94 100 100 100 95 93 84 54 48 39 37 48 90 63 57 52 62 68 87 100 100 100 100 100 100 100 100 100 100
100 100 100 100 100 100 100 100 100 100 100 100 100 100 98 98 100 96 95 100 100 100 82 100 96 82 57 41 34 40 46 51 80 88 100 100 100 100 99 98 99 97 95 96
100 100 100 99 100 100 100 100 100 100 100 100 100 99 96 100 100 100 100 100 100 100 100 100 98 94 90 84 71 56 44 46 67 95 99 96 95 99 100 100 97 97 98 97
100 80 95 100 100 100 100 100 100 100 100 100 99 98 100 100 100 96 100 100 100 99 99 98 94 90 87 83 77 64 49 42 56 91 99 100 100 100 100 100 100 99 94 92
63 76 97 100 100 100 100 100 100 100 100 100 92 95 97 98 99 99 100 98 95 92 89 88 87 85 84 79 65 46 36 36 48 73 68 91 100 100 98 98 98 99 97 96
51 72 76 96 93 99 100 100 100 96 100 100 99 98 95 93 95 96 96 95 94 90 90 88 87 86 82 62 39 36 40 41 47 56 67 70 77 88 98 98 96 95 96 94